Spokane Fairchild, WA
on Tuesday, January 15, 2013

Tuesday
Previous Day Next Day
Daily Summary
 ActualAverage (KGEG)Record (KGEG)
Temperature
Mean Temperature °F 30°F  
Max Temperature 28°F 34°F 51°F (1973)
Min Temperature 15°F 25°F -30°F (1888)
Degree Days
Heating Degree Days 44 35  
Month to date heating degree days 549  
Since 1 July heating degree days 3383  
Cooling Degree Days 0 0  
Month to date cooling degree days 0  
Year to date cooling degree days 0  
Moisture
Dew Point 22°F   
Average Humidity 100    
Maximum Humidity 100    
Minimum Humidity 99    
Precipitation
Precipitation 0.00 in 0.06 in 0.76 in (1971)
Month to date precipitation 0.95  
Year to date precipitation 0.95  
Snow
Snow 0.00 in 0.40 in 4.70 in (1956)
Month to date snowfall 6.7  
Since 1 July snowfall 28.8  
Snow Depth 3.00 in   
Wind
Wind Speed 2 mph   
Max Wind Speed 8 mph   
Max Gust Speed mph   
Visibility 7 miles   
Events Fog , Snow   

Key: T is trace of precipitation, MM is missing value
Source: NWS Daily Summary
Time(PST)TemperatureDew PointHumidity Pressure Visibility Wind DirectionWind SpeedGust SpeedPrecipitationEvents Conditions
12:03 AM 15.8°F 15.8°F 100% 30.38 in 0.8 miles Calm Calm - N/A   Mist
12:08 AM 15.8°F 15.8°F 100% 30.38 in 0.5 miles SSE 1.2 mph - N/A Fog Light Freezing Fog
12:13 AM 15.8°F 15.8°F 100% 30.38 in 0.2 miles SE 1.2 mph - N/A Fog Light Freezing Fog
12:17 AM 15.8°F 15.8°F 100% 30.38 in 0.2 miles SE 1.2 mph - N/A Fog , Snow Light Freezing Fog
12:31 AM 17.6°F 17.6°F 100% 30.37 in 0.2 miles SSW 2.3 mph - N/A Fog Light Freezing Fog
12:32 AM 17.6°F 17.6°F 100% 30.38 in 0.2 miles SSW 2.3 mph - N/A Fog Light Freezing Drizzle
12:58 AM 16.5°F 16.5°F 100% 30.52 in 0.2 miles Calm Calm - 0.00 in Fog Light Freezing Drizzle
1:01 AM 15.8°F 15.8°F 100% 30.40 in 0.2 miles NNE 3.5 mph - N/A Fog Light Freezing Fog
1:06 AM 15.8°F 15.8°F 100% 30.41 in 0.5 miles Calm Calm - N/A Fog Light Freezing Fog
1:11 AM 15.8°F 15.8°F 100% 30.40 in 0.5 miles South 1.2 mph - N/A Fog Light Freezing Fog
1:16 AM 15.8°F 15.8°F 100% 30.40 in 0.8 miles SSW 1.2 mph - N/A   Mist
1:17 AM 15.8°F 15.8°F 100% 30.40 in 0.8 miles South 1.2 mph - N/A   Mist
1:22 AM 15.8°F 15.8°F 100% 30.39 in 0.5 miles SSW 2.3 mph - N/A Fog Light Freezing Fog
1:27 AM 15.8°F 15.8°F 100% 30.40 in 0.5 miles South 2.3 mph - N/A Fog Light Freezing Fog
1:37 AM 17.6°F 17.6°F 100% 30.40 in 0.5 miles SW 2.3 mph - N/A Fog Light Freezing Fog
1:42 AM 17.6°F 17.6°F 100% 30.40 in 2.5 miles SW 2.3 mph - N/A   Overcast
1:47 AM 17.6°F 17.6°F 100% 30.40 in 7.0 miles SW 2.3 mph - N/A   Overcast
1:58 AM 17.6°F 17.6°F 100% 30.53 in 8.0 miles SW 1.2 mph - 0.00 in   Overcast
2:43 AM 19.4°F 19.4°F 100% 30.41 in 9.0 miles Variable 1.2 mph - N/A   Mostly Cloudy
2:58 AM 18.5°F 18.5°F 100% 30.53 in 8.0 miles Variable 1.2 mph - N/A   Mostly Cloudy
3:08 AM 17.6°F 17.6°F 100% 30.41 in 8.0 miles NE 2.3 mph - N/A Snow Light Snow
3:18 AM 17.6°F 17.6°F 100% 30.41 in 10.0 miles Calm Calm - N/A   Overcast
3:19 AM 17.6°F 17.6°F 100% 30.41 in 10.0 miles ENE 1.2 mph - N/A   Light Freezing Drizzle
3:44 AM 17.6°F 17.6°F 100% 30.42 in 10.0 miles Calm Calm - N/A   Light Freezing Drizzle
3:48 AM 17.6°F 17.6°F 100% 30.41 in 10.0 miles Calm Calm - N/A   Scattered Clouds
3:58 AM 17.2°F 17.2°F 100% 30.54 in 10.0 miles Calm Calm - 0.00 in   Partly Cloudy
4:03 AM 17.6°F 17.6°F 100% 30.42 in 8.0 miles Calm Calm - N/A   Partly Cloudy
4:18 AM 17.6°F 17.6°F 100% 30.41 in 5.0 miles WSW 2.3 mph - N/A   Mostly Cloudy
4:23 AM 17.6°F 17.6°F 100% 30.41 in 4.0 miles Calm Calm - N/A   Mostly Cloudy
4:28 AM 17.6°F 17.6°F 100% 30.42 in 5.0 miles Calm Calm - N/A   Mostly Cloudy
4:33 AM 17.6°F 17.6°F 100% 30.42 in 8.0 miles Calm Calm - N/A   Overcast
4:38 AM 17.6°F 17.6°F 100% 30.42 in 10.0 miles Calm Calm - N/A   Overcast
4:43 AM 17.6°F 17.6°F 100% 30.41 in 10.0 miles SSW 1.2 mph - N/A   Overcast
4:58 AM 17.1°F 17.1°F 100% 30.54 in 10.0 miles Calm Calm - N/A   Overcast
5:23 AM 19.4°F 19.4°F 100% 30.42 in 10.0 miles South 3.5 mph - N/A Snow Light Snow
5:28 AM 19.4°F 19.4°F 100% 30.42 in 10.0 miles SSW 3.5 mph - N/A Snow Light Snow
5:38 AM 19.4°F 19.4°F 100% 30.43 in 1.2 miles SSW 2.3 mph - N/A Snow Light Snow
5:39 AM 19.4°F 19.4°F 100% 30.43 in 1.0 miles SSW 2.3 mph - N/A   Overcast
5:40 AM 19.4°F 19.4°F 100% 30.43 in 1.0 miles SSW 2.3 mph - N/A   Light Freezing Drizzle
5:45 AM 19.4°F 19.4°F 100% 30.43 in 1.2 miles South 2.3 mph - N/A   Light Freezing Drizzle
5:50 AM 19.4°F 19.4°F 100% 30.43 in 5.0 miles South 2.3 mph - N/A   Light Freezing Drizzle
5:58 AM 19.0°F 19.0°F 100% 30.56 in 10.0 miles Calm Calm - 0.00 in   Light Freezing Drizzle
6:09 AM 19.4°F 19.4°F 100% 30.44 in 10.0 miles ESE 2.3 mph - N/A   Overcast
6:58 AM 19.2°F 19.2°F 100% 30.58 in 10.0 miles Calm Calm - 0.00 in   Overcast
7:03 AM 19.4°F 19.4°F 100% 30.45 in 10.0 miles ENE 1.2 mph - N/A   Overcast
7:13 AM 19.4°F 19.4°F 100% 30.46 in 10.0 miles Calm Calm - N/A   Overcast
7:42 AM 17.6°F 17.6°F 100% 30.47 in 10.0 miles SSE 1.2 mph - N/A Snow Light Snow
7:48 AM 19.4°F 19.4°F 100% 30.47 in 10.0 miles South 2.3 mph - N/A   Overcast
7:49 AM 19.4°F 19.4°F 100% 30.47 in 10.0 miles South 2.3 mph - N/A   Light Freezing Drizzle
7:55 AM 19.6°F 19.6°F 100% 30.59 in 10.0 miles Calm Calm - N/A   Overcast
8:20 AM 19.4°F 19.4°F 100% 30.49 in 10.0 miles Calm Calm - N/A   Overcast
8:27 AM 19.4°F 19.4°F 100% 30.49 in 10.0 miles SSE 2.3 mph - N/A Snow Light Snow
8:55 AM 18.7°F 18.7°F 100% 30.61 in 10.0 miles Calm Calm - N/A   Overcast
9:34 AM 19.4°F 19.4°F 100% 30.50 in 9.0 miles East 3.5 mph - N/A   Overcast
9:55 AM 20.7°F 20.7°F 100% 30.64 in 10.0 miles Calm Calm - N/A   Overcast
10:04 AM 21.2°F 21.2°F 100% 30.52 in 10.0 miles West 1.2 mph - N/A   Scattered Clouds
10:20 AM 21.2°F 21.2°F 100% 30.52 in 10.0 miles SSW 2.3 mph - N/A   Clear
10:31 AM 21.2°F 21.2°F 100% 30.52 in 10.0 miles Calm Calm - N/A   Clear
10:42 AM 21.2°F 21.2°F 100% 30.52 in 10.0 miles Calm Calm - N/A   Clear
10:52 AM 21.2°F 21.2°F 100% 30.52 in 10.0 miles Calm Calm - N/A   Clear
10:58 AM 20.8°F 20.8°F 100% 30.64 in 10.0 miles East 1.2 mph - 0.00 in   Clear
11:41 AM 21.2°F 21.2°F 100% 30.51 in 10.0 miles East 1.2 mph - N/A   Mostly Cloudy
11:58 AM 22.1°F 22.1°F 100% 30.65 in 10.0 miles Variable 1.2 mph - N/A   Overcast
12:09 PM 23.0°F 23.0°F 100% 30.51 in 10.0 miles South 3.5 mph - N/A   Overcast
12:21 PM 23.0°F 23.0°F 100% 30.51 in 10.0 miles South 5.8 mph - N/A   Overcast
12:32 PM 24.8°F 24.8°F 100% 30.50 in 10.0 miles South 5.8 mph - N/A   Overcast
12:39 PM 24.8°F 24.8°F 100% 30.51 in 10.0 miles South 4.6 mph - N/A   Overcast
12:58 PM 25.0°F 25.0°F 100% 30.63 in 10.0 miles South 6.9 mph - 0.00 in   Overcast
1:05 PM 24.8°F 24.8°F 100% 30.51 in 10.0 miles South 4.6 mph - N/A   Overcast
1:22 PM 24.8°F 24.8°F 100% 30.51 in 10.0 miles South 4.6 mph - N/A   Overcast
1:27 PM 26.6°F 26.6°F 100% 30.50 in 10.0 miles South 4.6 mph - N/A   Overcast
1:28 PM 26.6°F 26.6°F 100% 30.51 in 10.0 miles South 4.6 mph - N/A   Overcast
1:34 PM 26.6°F 26.6°F 100% 30.50 in 10.0 miles South 4.6 mph - N/A   Overcast
1:51 PM 26.6°F 26.6°F 100% 30.51 in 10.0 miles SSE 5.8 mph - N/A   Overcast
1:55 PM 26.6°F 26.6°F 100% 30.51 in 10.0 miles SSE 6.9 mph - N/A   Overcast
1:59 PM 26.6°F 26.6°F 100% 30.63 in 10.0 miles SSE 6.9 mph - 0.00 in   Overcast
2:09 PM 26.6°F 26.6°F 100% 30.51 in 10.0 miles SSE 8.1 mph - N/A   Overcast
2:36 PM 26.6°F 26.6°F 100% 30.52 in 10.0 miles SSE 6.9 mph - N/A   Overcast
2:58 PM 27.3°F 27.3°F 100% 30.63 in 10.0 miles SSE 6.9 mph - 0.00 in   Overcast
3:27 PM 26.6°F 26.6°F 100% 30.52 in 10.0 miles South 5.8 mph - N/A   Overcast
3:38 PM 26.6°F 26.6°F 100% 30.52 in 10.0 miles SSE 6.9 mph - N/A   Overcast
3:58 PM 27.1°F 27.1°F 100% 30.63 in 10.0 miles South 3.5 mph - 0.00 in   Overcast
4:20 PM 26.6°F 26.6°F 100% 30.52 in 10.0 miles SE 5.8 mph - N/A   Overcast
4:35 PM 26.6°F 26.6°F 100% 30.52 in 10.0 miles South 4.6 mph - N/A   Overcast
4:39 PM 26.6°F 26.6°F 100% 30.52 in 10.0 miles South 4.6 mph - N/A   Overcast
4:44 PM 26.6°F 26.6°F 100% 30.52 in 10.0 miles South 4.6 mph - N/A   Overcast
4:51 PM 26.6°F 26.6°F 100% 30.52 in 9.0 miles South 3.5 mph - N/A   Overcast
4:58 PM 27.3°F 27.3°F 100% 30.63 in 8.0 miles South 2.3 mph - 0.00 in   Overcast
4:59 PM 26.6°F 26.6°F 100% 30.52 in 9.0 miles South 2.3 mph - N/A   Overcast
5:44 PM 26.6°F 26.6°F 100% 30.52 in 9.0 miles East 2.3 mph - N/A   Overcast
5:54 PM 28.4°F 28.4°F 100% 30.52 in 9.0 miles East 3.5 mph - N/A   Overcast
5:58 PM 27.7°F 27.5°F 99% 30.63 in 9.0 miles East 2.3 mph - 0.00 in   Overcast
6:08 PM 28.4°F 28.4°F 100% 30.52 in 10.0 miles ENE 3.5 mph - N/A   Overcast
6:10 PM 28.4°F 28.4°F 100% 30.52 in 10.0 miles ENE 3.5 mph - N/A   Overcast
6:25 PM 28.4°F 28.4°F 100% 30.52 in 10.0 miles ENE 3.5 mph - N/A   Overcast
6:51 PM 28.4°F 28.4°F 100% 30.52 in 10.0 miles East 1.2 mph - N/A   Overcast
6:58 PM 28.4°F 28.4°F 100% 30.63 in 10.0 miles NNE 3.5 mph - N/A   Overcast
7:30 PM 28.4°F 28.4°F 100% 30.51 in 8.0 miles NNE 3.5 mph - N/A   Overcast
7:58 PM 26.8°F 26.8°F 100% 30.62 in 8.0 miles NNE 4.6 mph - N/A   Overcast
8:58 PM 24.6°F 24.6°F 100% 30.62 in 6.0 miles NE 3.5 mph - N/A   Mostly Cloudy
9:55 PM 23.0°F 23.0°F 100% 30.50 in 2.5 miles NE 4.6 mph - N/A   Overcast
9:59 PM 23.4°F 23.4°F 100% 30.62 in 2.0 miles NE 4.6 mph - N/A   Overcast
10:04 PM 23.0°F 23.0°F 100% 30.50 in 0.8 miles NE 4.6 mph - N/A   Mostly Cloudy
10:06 PM 23.0°F 23.0°F 100% 30.50 in 0.5 miles NE 4.6 mph - N/A Fog Light Freezing Fog
10:19 PM 21.2°F 21.2°F 100% 30.50 in 0.5 miles NE 5.8 mph - N/A Fog Light Freezing Fog
10:24 PM 21.2°F 21.2°F 100% 30.50 in 0.8 miles NE 4.6 mph - N/A   Overcast
10:31 PM 21.2°F 21.2°F 100% 30.49 in 0.5 miles NE 4.6 mph - N/A Fog Light Freezing Fog
10:36 PM 21.2°F 21.2°F 100% 30.49 in 0.8 miles NE 4.6 mph - N/A   Mist
10:41 PM 21.2°F 21.2°F 100% 30.49 in 0.5 miles NE 5.8 mph - N/A Fog Light Freezing Fog
10:49 PM 21.2°F 21.2°F 100% 30.49 in 0.5 miles NE 4.6 mph - N/A Fog Light Freezing Fog
10:54 PM 23.0°F 23.0°F 100% 30.49 in 0.5 miles ENE 3.5 mph - N/A Fog Light Freezing Fog
10:55 PM 23.0°F 23.0°F 100% 30.49 in 0.5 miles NE 3.5 mph - N/A Fog , Snow Light Freezing Fog
10:59 PM 21.2°F 21.2°F 100% 30.61 in 0.5 miles ENE 2.3 mph - 0.00 in Fog , Snow Light Freezing Fog
11:10 PM 23.0°F 23.0°F 100% 30.49 in 0.2 miles ENE 2.3 mph - N/A Fog , Snow Light Freezing Fog
11:15 PM 23.0°F 23.0°F 100% 30.48 in 0.2 miles ENE 1.2 mph - N/A Fog , Snow Light Freezing Fog
11:49 PM 23.0°F 23.0°F 100% 30.48 in 0.2 miles Calm Calm - N/A Fog Light Freezing Fog
11:50 PM 23.0°F 23.0°F 100% 30.48 in 0.2 miles Calm Calm - N/A Fog Light Freezing Drizzle
11:58 PM 22.5°F 22.3°F 99% 30.60 in 0.2 miles North - - 0.00 in Fog Light Freezing Drizzle
Moon Phase
Jan. 15 Jan. 18 Jan. 26 Feb. 03 Feb. 10
Sunrise:07:33 AM (PST) Moon Rise:09:19 AM (PST)1/15
Sunset:04:26 PM (PST) Moon Set:09:46 PM (PST)1/15

Copyright © 2014 The Weather Underground, Inc.